Regional Weather Roundup
Issued by NWS

Home | Current Version | Previous Version | Text Only | Print | Product List | Glossary On
Versions: 1 2 3 4 5 6 7 8 9 10 11 12 13 14 15 16 17 18 19 20 21 22 23 24 25 26 27 28 29 30 31 32 33 34 35 36 37 38 39 40 41 42 43 44 45 46 47 48 49 50
000
ASUS42 KTBW 281710
RWRFL
FLORIDA REGIONAL WEATHER ROUNDUP
NATIONAL WEATHER SERVICE TAMPA BAY RUSKIN FL
1200 PM EST SUN DEC 28 2014

NOTE: "FAIR" INDICATES FEW OR NO CLOUDS BELOW 12,000 FEET WITH NO
SIGNIFICANT WEATHER AND/OR OBSTRUCTIONS TO VISIBILITY.


FLZ001>010-012>015-112-114-115-281800-
PANHANDLE FLORIDA

CITY           SKY/WX    TMP DP  RH WIND       PRES   REMARKS
PENSACOLA      CLOUDY    73  68  84 W10       30.09F
MILTON NAS     CLOUDY    71  32  23 W5        30.09F
CRESTVIEW      CLOUDY    73  70  90 SW8       30.11F
DUKE FIELD     FAIR      73  68  84 S12       30.09F
VALPARAISO     CLOUDY    72  69  90 S10       30.10F
MARY ESTHER    CLOUDY    72  66  83 S10       30.09F
PANAMA CITY    PTSUNNY   74  67  78 S10       30.11F
TYNDALL AFB    PTSUNNY   73  73  99 S13       30.12F
APALACHICOLA   PTSUNNY   74  66  76 S12       30.13F

STATION/POSITION SKY/WX   TEMP    WIND        PRES    WAVE   SWELL
                          AIR SEA DIR/SP/G            HT/PER HT/PER
                          (F)     (DEG/KT/KT) (MB)    (FT/S) (FT/S)
30.1N   87.6W              70 68  230/  6/  6 1018.6F   3/ 7   3/ 7
29.2N   88.2W              73 74  180/ 10/ 12 1018.7F   3/ 8   3/ 8
28.7N   86.0W              74 74  180/ 12/ 14 1020.1    2/ 4   2/ 7
PANAMA CITY BEAC           63 62  120/  9/  9 1019.4F
CAPE SAN BLAS    NOT AVBL
TOWER C                    67     160/ 13/ 13 1020.4F
28.5N   84.5W              73 72  160/  6/  8 1020.8F   1/ 8

$$
FLZ011-016>038-118-127-128-134-139-239-281800-
NORTH FLORIDA

CITY           SKY/WX    TMP DP  RH WIND       PRES   REMARKS
MARIANNA       PTSUNNY   73  67  81 SW10      30.10F
TALLAHASSEE    PTSUNNY   77  62  59 S12       30.12F
PERRY          MOSUNNY   73  65  75 SW13      30.15F
CROSS CITY       N/A     74  66  76 SW7       30.15F
LAKE CITY      FAIR      73  66  78 SW5       30.14F
GAINESVILLE    MOSUNNY   75  65  70 SW7       30.14F
MAYPORT NAS    SUNNY     79  67  66 SW6       30.12F
JACKSONVILLE   PTSUNNY   78  67  68 SW9       30.11F
JAX NAS        MOSUNNY   70  65  84 S9        30.13F
JAX CRAIG      SUNNY     78  66  66 SW9       30.12F
JAX CECIL      SUNNY     79  66  65 VRB6      30.13F
FERNANDINA BEA FAIR      79  70  73 SW6       30.11F
ST AUGUSTINE   SUNNY     77  69  76 SW8       30.14F HAZE

STATION/POSITION SKY/WX   TEMP    WIND        PRES    WAVE   SWELL
                          AIR SEA DIR/SP/G            HT/PER HT/PER
                          (F)     (DEG/KT/KT) (MB)    (FT/S) (FT/S)
SHELL POINT                65     140/  5/  7   N/A
KEATON BEACH               62     190/  7/  8 1021.1F
CEDAR KEY                  63      70/  2/  3 1021.9F
FERNANDINA                 72 61  190/  9/ 10 1019.3F
30.7N   81.3W                 61                N/A     3/15   2/15
MAYPORT                    73 63  230/  3/  4   N/A
31.4N   80.9W              62 59  190/  8/ 10 1019.6F   4/15   3/15
ST AUGUSTINE               65     120/  4/  4 1021.0F

$$
FLZ040-043>046-052-053-057-058-063-144-281800-
INTERIOR CENTRAL FLORIDA

CITY           SKY/WX    TMP DP  RH WIND       PRES   REMARKS
OCALA          MOSUNNY   77  66  69 SW6       30.15F
THE VILLAGES     N/A     75  70  83 SE6       30.05F HAZE
LEESBURG       CLOUDY    70  69  97 CALM      30.15F FOG
SANFORD        MOSUNNY   79  68  69 SE3       30.14F
ORLANDO EXEC   SUNNY     79  67  66 S6        30.14F
ORLANDO INTL   PTSUNNY   79  65  62 S9        30.14F
KISSIMMEE      SUNNY     77  66  69 CALM      30.15F
WINTER HAVEN   SUNNY     80  63  55 SW9       30.16F
LAKELAND       MOSUNNY   79  64  61 SW12      30.15F
BARTOW         MOSUNNY   79  63  57 SW9       30.16F
OKEECHOBEE     SUNNY     79  63  57 S9        30.16F

$$
FLZ041-047-054-059-064-141-147-281800-
EAST CENTRAL FLORIDA

CITY           SKY/WX    TMP DP  RH WIND       PRES   REMARKS
ORMOND BEACH   MOSUNNY   77  70  78 W7        30.14F
DAYTONA BEACH  PTSUNNY   78  70  76 S9        30.14F
DELAND         PTSUNNY  N/A N/A N/A SW7       30.15F
NEW SMYRNA BEA MOSUNNY   77  70  78 W6        30.16F
JFK SPACE CTR  SUNNY     79  67  64 S6        30.14F
TITUSVILLE     MOSUNNY   79  68  69 S9        30.14F
CAPE CANAVERAL SUNNY     79  69  70 S6        30.13F
PATRICK AFB    SUNNY     78  70  76 SE7       30.15F
MELBOURNE      SUNNY     81  66  60 SW9       30.15F
VERO BEACH     SUNNY     81  65  58 S10       30.15F
FT PIERCE      MOSUNNY   81  66  60 SW7       30.15F
STUART         PTSUNNY   77  66  69 S6        30.17F

STATION/POSITION SKY/WX   TEMP    WIND        PRES    WAVE   SWELL
                          AIR SEA DIR/SP/G            HT/PER HT/PER
                          (F)     (DEG/KT/KT) (MB)    (FT/S) (FT/S)
28.5N   80.2W              73 76  230/  8/ 10 1021.7F
28.9N   78.5W              77 77  220/ 10/ 12 1021.0F   5/15   5/15
TRIDENT PIER               77 67  160/  5/  7 1020.7F
28.4N   80.5W                 70                N/A     3/15   2/15
27.6N   80.2W                 76                N/A     4/17   3/17

$$
FLZ050-056-061-142-242-148-248-149-249-151-251-155-255-
160-260-281800-
WEST CENTRAL FLORIDA

CITY           SKY/WX    TMP DP  RH WIND       PRES   REMARKS
CRYSTAL RIVER  FAIR      79  64  61 W5        30.14F
INVERNESS      CLOUDY    77  66  69 CALM      30.15F
BROOKSVILLE    PTSUNNY   78  67  68 SW5       30.15F
ZEPHYRHILLS    FAIR      77  70  78 CALM      30.15F
CLEARWATER     PTSUNNY   72  68  87 NE5       30.14F
TAMPA INTL     CLOUDY    74  68  81 SW8       30.15F
TAMPA EXEC     MOSUNNY   81  64  57 SW8       30.15F
PLANT CITY     MOSUNNY   81  63  54 SW7       30.16F
MACDILL AFB    SUNNY     78  72  82 S7        30.15F
PETER O KNIGHT SUNNY     77  70  78 S5        30.15F
ST PETERSBURG  MOSUNNY   74  68  81 S8        30.14F
SARASOTA       SUNNY     76  67  73 S7        30.14F
VENICE         FAIR      77  68  73 S8        30.16F

STATION/POSITION SKY/WX   TEMP    WIND        PRES    WAVE   SWELL
                          AIR SEA DIR/SP/G            HT/PER HT/PER
                          (F)     (DEG/KT/KT) (MB)    (FT/S) (FT/S)
CEDAR KEY                  63      70/  2/  3 1021.9F
28.5N   84.5W              73 72  160/  6/  8 1020.8F   1/ 8
27.3N   84.3W                 75                N/A     2/ 6
CLEARWATER BEACH           69 67  230/  5/  6 1020.8F
MIDDLE TAMPA BAY           70     290/  4/  4 1021.4F
VENICE                     72 68  190/  6/  6 1020.7F

$$
FLZ066-069-070-075>078-162-262-165-265-281800-
SOUTHWEST FLORIDA AND KEYS

CITY           SKY/WX    TMP DP  RH WIND       PRES   REMARKS
PUNTA GORDA    PTSUNNY   78  66  66 SE9       30.16F
FT MYERS       MOSUNNY   78  67  68 SE9       30.14F
SOUTHWEST INTL SUNNY     78  66  66 S8        30.15F
NAPLES         MOSUNNY   80  67  64 SE9G18    30.14F
MARCO ISLAND   MOSUNNY   79  66  65 SE9       30.15F
MARATHON       MOSUNNY   81  72  74 SE6       30.13F
KEY WEST NAS   SUNNY     81  67  62 SE14      30.13F
KEY WEST INTL  SUNNY     80  68  66 SE12      30.14F

STATION/POSITION SKY/WX   TEMP    WIND        PRES    WAVE   SWELL
                          AIR SEA DIR/SP/G            HT/PER HT/PER
                          (F)     (DEG/KT/KT) (MB)    (FT/S) (FT/S)
VENICE                     72 68  190/  6/  6 1020.7F
NAPLES                     77 76  160/  8/ 13 1021.4F
26.0N   85.6W              75 75  120/  8/ 10 1020.1F   3/ 5   3/ 5
DRY TORTUGAS               73      90/ 10/ 11 1020.8F
NW FL BAY                  76     110/  5/  6 1021.9S
SAND KEY                   77     120/ 13/ 15 1020.4F
SOMBRERO KEY               78     140/ 12/ 13 1020.9F
LONG KEY                   78 75  110/  7/  9 1022.1F
MOLASSES REEF              77 78  140/ 10/ 11 1020.7F

$$
FLZ067-068-071>074-168-172>174-281800-
SOUTHEAST FLORIDA

CITY           SKY/WX    TMP DP  RH WIND       PRES   REMARKS
W PALM BEACH   MOSUNNY   81  69  67 S10       30.14F
FT LAUDER-EXEC MOSUNNY   80  30  16 SE10      30.14F
FT LAUDERDALE  MOSUNNY   77  69  76 SE12      30.14F
POMPANO BEACH  SUNNY     81  69  67 SE12      30.15F
PEMBROKE PINES MOSUNNY   80  69  69 SE12      30.16F
OPA LOCKA      MOSUNNY   80  68  66 SE13      30.15F
MIAMI          MOSUNNY   81  67  62 E13G21    30.15F
WEST KENDALL   PTSUNNY   80  67  64 SE9       30.14F
HOMESTEAD      MOSUNNY   80  69  68 SE8       30.14F

STATION/POSITION SKY/WX   TEMP    WIND        PRES    WAVE   SWELL
                          AIR SEA DIR/SP/G            HT/PER HT/PER
                          (F)     (DEG/KT/KT) (MB)    (FT/S) (FT/S)
PORT EVERGLADES            78     130/  7/ 10 1021.0
VIRGINIA KEY               77 75  120/  8/ 11 1021.5F
LAKE WORTH                 77 77  170/ 10/ 12 1020.9F
FOWEY ROCKS                77 77  120/  9/ 10 1020.9F


USA.gov is the U.S. government's official web portal to all federal, state and local government web resources and services.